Regional Weather Roundup
Issued by NWS Cleveland, OH

Home | Current Version | Previous Version | Text Only | Print | Product List | Glossary Off
Versions: 1 2 3 4 5 6 7 8 9 10 11 12 13 14 15 16 17 18 19 20 21 22 23 24 25 26 27 28 29 30 31 32 33 34 35 36 37 38 39 40 41 42 43 44 45 46 47 48 49 50

062
ASUS41 KCLE 291902
RWRCLE
OHIO REGIONAL WEATHER ROUNDUP
NATIONAL WEATHER SERVICE CLEVELAND, OH
300 PM EDT FRI JUL 29 2016

NOTE: "FAIR" INDICATES FEW OR NO CLOUDS BELOW 12,000 FEET WITH NO
SIGNIFICANT WEATHER AND/OR OBSTRUCTIONS TO VISIBILITY.

OHZ001>008-015>018-024>027-034-035-043-044-292000-
   NORTHWEST OHIO

CITY           SKY/WX    TMP DP  RH WIND       PRES   REMARKS
DEFIANCE       RAIN      79  71  76 CALM      29.93R
FINDLAY        MOSUNNY   87  63  44 CALM      29.90F
TOLEDO EXPRESS PTSUNNY   85  68  56 VRB5      29.91F
TOLEDO EXEC    MOSUNNY   87  67  51 E8        29.92F HX  90
LIMA           RAIN      75  72  90 SE10      29.93R FOG
$$

OHZ009>014-019>023-028>033-038-089-292000-
   NORTHEAST OHIO

CITY           SKY/WX    TMP DP  RH WIND       PRES   REMARKS
CLE-HOPKINS    LGT RAIN  76  67  73 E7        29.98R
CLE-LAKEFRONT  CLOUDY    80  71  74 NE8       29.95R
CUY CO. ARPT   PTSUNNY   75  70  83 SE6       29.97R
LORAIN-ELYRIA  SUNNY     83  68  60 N12       29.94S
ASHTABULA      CLOUDY    79  72  79 VRB5      29.95S
AKRON-CANTON   MOSUNNY   87  57  35 NW6       29.94F
WOOSTER        PTSUNNY   83  66  56 E3        29.94F
MANSFIELD      CLOUDY    82  66  58 SE12      29.94F
YOUNGSTOWN     PTSUNNY   80  65  59 SE5       29.95S
$$

OHZ042-051>053-060>062-070>072-077>081-292000-
  SOUTHWEST OHIO

CITY           SKY/WX    TMP DP  RH WIND       PRES   REMARKS
CINC-COVINGTON PTSUNNY   86  70  58 SW6       29.92F HX  90
CINC-LUNKEN    PTSUNNY   85  74  69 S9        29.90F HX  92
HAMILTON       PTSUNNY   88  70  55 SW8       29.90F HX  93
DAYTON         PTSUNNY   85  66  53 W7        29.92F
WRIGHT-PAT AFB PTSUNNY   84  73  68 SE5       29.90F HX  90
DAYTON GENERAL MOSUNNY   85  70  60 S10       29.91F
WILMINGTON     MOSUNNY   82  72  71 S10       29.92F
$$

OHZ036-037-039>041-045>050-054>059-063>069-073>076-082>088-292000-
  CENTRAL AND SOUTHEAST OHIO

CITY           SKY/WX    TMP DP  RH WIND       PRES   REMARKS
COLUMBUS       CLOUDY    80  70  71 SW8       29.94R
OSU AIRPORT    LGT RAIN  74  70  87 SW9       29.95S
BOLTON FIELD   NOT AVBL
RICKENBACK AFB LGT RAIN  72  69  89 SW3       29.94S
NEWARK         SUNNY     82  69  64 CALM      29.93S
MARION         CLOUDY    85  65  51 S9        29.93S
LANCASTER      PTSUNNY   82  70  66 CALM      29.93F
ZANESVILLE     SUNNY     85  68  56 MISG      29.94F
NEW PHILLY     MOSUNNY   86  66  51 S9        29.93F
$$




USA.gov is the U.S. government's official web portal to all federal, state and local government web resources and services.